Location: Iesi
(43.5167°N, 13.2333°E)
Time: 01:22:42
(UTC+00:00)

Cosmos 2227 Rocket - Pass Details

Date: 08 August 2020
Orbit: 840 x 844 km, 71.0° (Epoch: 19 September)

Event Time Altitude Azimuth Distance (km) Brightness Sun altitude
Exits shadow 23:22:10 20° 85° (E) 1,865 4.0 -30.7°
Drops below altitude 10° 23:25:11 10° 54° (NE) 2,469 5.1 -30.6°
Sets 23:28:11 0° 39° (NE) 3,409 6.1 -30.6°
